Temp
63 56 54 61 64 67 69 69 67 72 80 76 73 74 77 83 83 83 85 85 87 89 95 97 96 96 94 87 85 87 83 86 81 79 79 79 83 85 87 87 87 87 87 86
59 50 62 68 68 65 66 65 67 74 78 75 73 70 77 81 83 84 83 85 87 90 93 95 94 93 92 91 90 86 84 82 80 80 83 85 84 85 86 86 84 87 89 88
55 61 66 64 63 62 63 63 65 67 72 75 72 67 73 80 84 85 86 88 89 89 90 93 92 91 91 89 88 89 81 80 76 77 81 80 83 83 82 81 83 86 86 87
52 64 64 61 60 64 57 68 67 67 66 59 71 56 68 75 77 81 83 85 87 89 91 93 92 90 90 90 90 89 77 79 77 77 77 79 82 81 84 84 83 84 84 85
54 58 58 57 61 65 60 69 66 66 65 64 65 59 68 76 73 77 81 84 87 89 91 92 93 92 92 92 90 88 76 79 77 76 78 81 85 88 88 89 80 81 81 82
50 65 60 63 67 68 68 65 65 65 64 53 63 62 65 73 75 79 83 84 86 89 91 93 95 94 93 94 92 88 79 75 75 76 78 81 83 86 86 85 82 81 79 79
49 52 56 64 61 66 64 58 44 43 47 46 65 63 66 78 82 83 83 84 87 89 90 92 93 94 94 94 90 81 77 73 75 77 76 80 80 82 81 82 84 79 77 74
36 38 58 62 61 59 59 58 49 38 44 50 64 57 67 80 86 86 88 86 88 88 91 92 93 94 95 87 79 78 76 73 76 76 78 79 81 84 81 80 80 78 79 77
42 43 57 63 66 64 59 51 64 56 59 54 60 68 75 79 76 77 79 85 85 87 90 92 93 93 81 78 76 75 73 72 73 74 74 76 79 79 78 77 78 79 77 77
50 42 52 61 64 65 61 67 49 56 45 44 58 61 63 71 72 75 77 76 76 85 89 88 84 77 74 72 72 71 71 71 72 75 77 77 76 76 75 75 73 73 74 74
42 43 43 56 53 55 58 55 58 59 57 50 50 58 74 72 75 74 69 61 59 61 65 67 69 69 69 71 71 70 73 74 75 76 76 74 74 74 74 72 72 71 71 72
39 39 37 46 62 63 63 54 59 49 50 55 61 53 73 76 75 63 54 54 57 61 65 67 66 67 69 70 73 75 75 76 76 75 73 72 71 71 70 68 69 69 69 70
39 37 36 35 46 59 51 61 62 58 60 54 54 48 61 63 56 52 51 53 55 58 61 64 67 69 71 72 74 75 76 74 74 72 71 68 68 67 66 65 66 67 65 67
42 36 40 44 46 54 42 56 63 59 53 53 56 49 52 52 49 50 51 53 54 56 59 62 66 69 70 72 74 74 74 74 74 73 70 68 67 67 67 67 67 66 67 65
37 34 42 51 53 55 56 57 60 56 54 52 53 51 53 50 49 50 52 53 55 56 60 62 64 67 70 71 71 72 73 72 72 71 69 67 68 68 68 67 67 66 67 68
39 32 38 41 56 56 55 61 62 63 56 59 50 49 55 52 52 51 52 54 54 56 59 62 64 68 68 68 68 69 70 70 71 69 68 68 67 67 63 65 66 66 66 66
36 36 38 42 53 50 47 60 62 57 61 62 47 47 50 49 50 51 53 55 56 59 62 63 65 65 65 66 67 67 68 69 69 68 68 67 67 66 65 65 65 63 61 61
36 35 39 40 44 32 55 65 67 63 58 54 47 49 50 48 50 53 56 56 58 59 61 63 63 63 64 66 67 67 68 67 67 65 65 65 65 64 63 62 60 59 59 58
40 36 39 35 37 50 56 59 62 54 44 48 45 45 46 48 48 48 56 60 60 61 63 63 63 63 63 65 66 65 65 65 65 63 63 64 64 62 61 59 58 58 58 56
47 44 40 41 40 37 52 63 70 58 37 47 46 45 45 49 37 39 54 59 61 62 62 60 61 61 61 63 64 63 62 62 61 62 61 62 63 61 58 57 56 56 56 56
45 51 39 50 45 40 54 66 69 48 41 49 50 50 50 45 43 45 50 51 54 56 56 59 61 59 60 61 61 58 59 58 61 62 61 60 60 59 56 55 54 54 52 53
38 39 45 47 43 38 58 61 56 54 56 53 54 45 41 41 43 45 47 48 50 52 55 58 58 57 59 61 59 56 55 59 60 59 58 57 57 57 55 52 53 52 50 50
40 45 41 39 40 50 59 56 58 60 58 54 49 47 45 43 43 46 47 49 51 53 55 57 56 56 58 58 57 54 54 57 57 55 54 54 54 53 53 52 50 51 50 47
46 50 43 43 44 52 57 60 59 59 58 59 56 54 52 48 48 48 49 50 53 55 58 60 58 56 55 57 57 56 55 53 53 50 51 52 52 51 51 51 48 45 43 42
39 44 41 41 46 50 53 56 58 58 59 59 59 56 50 46 43 49 51 53 57 58 58 58 56 56 55 57 56 57 56 53 50 49 51 50 50 52 49 46 44 43 39 37
38 39 40 37 45 48 48 53 53 50 51 51 48 44 45 46 49 51 53 57 57 56 57 56 56 56 56 57 56 58 58 52 47 46 47 47 48 53 51 48 44 38 38 38
MSLP
1001.90 1001.83 998.86 997.09 997.08 996.30 995.77 994.56 993.92 993.76 993.26 993.74 994.07 994.67 994.81 994.88 994.90 995.16 995.30 995.65 995.89 995.92 996.29 996.74 997.46 998.13 999.39 1000.76 1001.44 1002.68 1003.45 1004.14 1005.63 1006.55 1006.99 1007.51 1007.56 1007.75 1007.91 1008.21 1008.41 1008.81 1009.23 1009.56
1000.47 999.51 998.11 997.68 997.16 996.95 996.01 994.63 993.22 992.73 993.04 993.31 993.54 994.52 994.50 994.17 993.98 994.57 994.79 994.79 995.06 995.34 995.65 996.16 997.45 998.19 999.37 1000.29 1001.03 1002.37 1003.46 1004.29 1005.42 1006.20 1006.57 1007.00 1007.25 1007.69 1008.07 1008.22 1008.45 1008.58 1008.65 1009.06
998.71 997.30 997.87 997.37 996.56 995.76 995.62 994.56 993.90 993.11 993.14 993.54 993.92 994.04 993.43 993.24 993.27 993.90 993.99 994.34 994.55 994.78 995.12 995.67 996.95 998.39 999.44 1000.25 1001.15 1001.85 1003.24 1004.50 1005.67 1006.32 1006.73 1007.07 1007.38 1007.83 1007.93 1008.07 1008.52 1008.86 1009.03 1008.98
999.28 997.13 995.98 996.14 995.64 995.57 994.50 994.85 994.99 994.13 993.49 993.02 993.98 992.76 992.55 992.48 992.38 992.64 993.31 993.68 994.06 994.46 995.07 995.54 996.37 998.05 999.00 999.97 1001.04 1001.92 1003.37 1004.61 1005.77 1006.35 1006.69 1006.89 1007.02 1007.00 1007.30 1007.85 1008.45 1008.91 1009.21 1009.29
997.62 997.00 995.76 995.17 994.78 995.17 994.37 995.15 995.43 994.99 993.86 993.69 992.83 993.26 990.77 990.66 991.01 991.02 991.91 992.99 993.45 993.93 994.56 995.27 995.93 997.49 998.63 999.48 1000.65 1001.95 1003.61 1004.57 1005.50 1006.10 1006.69 1006.70 1006.20 1006.27 1006.71 1007.05 1008.42 1009.01 1009.32 1009.46
999.05 997.16 996.36 994.87 994.43 994.46 995.30 995.29 995.14 995.15 994.06 993.34 992.13 991.76 989.91 988.80 989.20 990.12 991.08 992.24 992.91 993.52 993.94 994.77 995.56 996.89 998.04 998.96 1000.24 1001.75 1003.73 1004.94 1005.79 1006.32 1006.50 1006.33 1006.28 1006.15 1006.47 1007.29 1007.97 1008.53 1009.22 1009.71
999.30 998.15 997.35 996.08 994.55 994.21 994.50 994.56 994.81 994.36 993.33 993.05 992.11 990.65 989.51 988.18 988.33 989.15 990.08 991.47 992.40 993.13 993.58 994.39 995.09 996.17 997.48 998.36 999.83 1002.60 1004.07 1005.23 1005.91 1006.26 1006.57 1006.40 1006.69 1006.81 1007.29 1007.68 1007.94 1008.76 1009.44 1009.98
998.17 996.53 995.15 995.24 993.77 993.01 993.38 993.96 992.91 992.10 991.93 991.34 991.23 989.43 988.46 988.82 988.10 989.22 989.87 991.13 992.17 992.94 993.40 994.15 995.05 996.07 997.39 999.21 1001.63 1003.30 1004.39 1005.41 1005.81 1006.17 1006.48 1006.55 1006.98 1006.98 1007.68 1008.17 1008.59 1009.35 1009.53 1010.27
997.97 996.19 995.13 994.31 993.80 993.13 992.84 993.66 993.38 992.06 992.20 991.40 990.68 989.05 989.69 989.48 990.73 991.33 991.79 991.34 992.41 993.18 993.69 994.30 995.33 996.59 999.13 1001.21 1002.78 1003.98 1004.97 1005.73 1006.24 1006.64 1006.85 1007.08 1007.37 1007.67 1008.42 1008.95 1009.21 1009.55 1009.88 1010.55
999.04 997.18 995.88 993.82 994.02 993.42 992.54 993.28 993.26 991.94 990.41 989.72 988.86 988.44 988.08 989.27 991.14 992.69 993.58 994.30 994.91 994.54 994.61 995.31 997.10 999.11 1001.17 1002.78 1004.16 1005.26 1005.84 1006.27 1006.78 1007.00 1007.32 1007.81 1008.37 1008.95 1009.53 1009.96 1010.34 1010.41 1010.61 1010.79
1001.79 999.85 997.04 995.17 993.45 992.34 992.31 992.33 992.65 992.04 990.82 989.22 988.02 988.26 988.70 990.16 991.99 994.03 996.17 998.33 999.21 999.31 999.08 999.73 1000.60 1001.86 1003.02 1004.38 1005.25 1005.64 1006.07 1006.43 1006.90 1007.49 1008.15 1008.63 1009.35 1009.81 1010.35 1010.85 1011.15 1011.40 1011.57 1011.49
1002.82 1000.96 998.38 996.14 993.55 993.46 992.56 993.55 992.15 991.60 990.63 990.43 988.78 990.77 990.67 990.68 993.38 997.09 999.48 1000.46 1001.27 1001.36 1001.29 1001.78 1002.46 1003.42 1004.44 1005.09 1005.28 1005.67 1006.30 1006.95 1007.74 1008.43 1009.10 1009.72 1010.47 1010.87 1011.33 1011.91 1012.05 1012.14 1012.14 1012.12
1003.45 1001.17 998.71 996.89 994.87 993.18 992.99 992.26 991.77 992.67 990.78 990.45 989.91 993.82 995.34 995.59 997.92 1000.03 1001.38 1002.60 1002.93 1003.05 1003.15 1003.55 1004.09 1004.34 1004.72 1005.28 1005.83 1006.45 1007.13 1008.02 1008.77 1009.32 1009.87 1010.68 1011.21 1011.71 1012.20 1012.60 1012.92 1012.90 1012.70 1012.79
1003.36 1001.61 998.37 994.61 993.41 992.82 993.31 991.54 991.06 991.54 991.40 991.85 991.69 995.72 997.23 998.64 999.73 1001.97 1003.36 1003.90 1004.11 1004.32 1004.47 1004.64 1004.81 1005.21 1005.73 1006.30 1006.82 1007.39 1008.03 1008.65 1009.14 1009.76 1010.49 1011.22 1011.67 1012.12 1012.56 1012.76 1012.93 1013.21 1013.34 1012.71
1003.66 1001.34 998.77 995.56 994.18 992.83 992.39 991.68 990.84 991.56 992.53 992.99 993.77 996.20 998.60 1000.04 1001.34 1003.46 1004.15 1004.59 1004.87 1005.12 1005.26 1005.47 1005.77 1006.23 1006.86 1007.42 1007.90 1008.42 1008.90 1009.35 1009.88 1010.46 1011.06 1011.66 1012.05 1012.46 1012.76 1012.99 1013.15 1013.27 1012.86 1012.37
1002.85 1001.01 998.75 996.40 993.45 992.79 992.21 991.23 990.93 991.38 993.88 993.76 996.02 997.56 1000.12 1001.38 1003.02 1004.19 1004.73 1004.99 1005.50 1005.94 1006.26 1006.60 1007.02 1007.55 1008.13 1008.58 1008.94 1009.36 1009.80 1010.26 1010.69 1011.15 1011.62 1012.16 1012.50 1012.72 1013.18 1013.04 1013.14 1013.22 1012.67 1012.56
1002.54 1000.61 998.03 996.05 994.38 993.71 992.62 990.82 990.90 992.09 993.73 994.12 996.92 998.54 1001.03 1002.78 1003.99 1004.74 1005.25 1005.52 1005.97 1006.37 1006.79 1007.44 1008.21 1008.94 1009.34 1009.69 1010.00 1010.32 1010.77 1011.14 1011.47 1011.98 1012.47 1012.77 1012.80 1012.94 1013.12 1013.28 1013.44 1013.56 1013.38 1013.53
1002.28 1000.84 998.98 996.85 995.99 994.81 992.67 992.33 991.67 993.35 995.48 997.30 999.32 1001.22 1002.46 1003.65 1004.97 1005.81 1006.26 1006.36 1006.86 1007.49 1008.23 1009.04 1009.66 1010.27 1010.40 1010.72 1010.97 1011.25 1011.62 1012.04 1012.33 1012.82 1013.05 1013.17 1013.10 1013.37 1013.71 1014.10 1014.41 1014.37 1014.28 1014.29
1001.55 1000.63 998.67 997.56 996.08 994.37 993.31 993.02 992.71 995.05 999.03 1000.37 1001.89 1003.24 1004.21 1005.10 1005.91 1007.65 1007.72 1007.91 1008.28 1008.83 1009.45 1010.22 1010.82 1011.13 1011.43 1011.60 1011.91 1012.18 1012.39 1012.86 1013.17 1013.53 1013.69 1013.82 1013.82 1014.29 1014.62 1014.84 1014.99 1015.10 1014.89 1014.83
1000.04 999.93 998.67 997.70 995.84 994.94 994.22 993.73 994.04 997.06 999.65 1001.87 1003.05 1004.65 1005.25 1005.74 1007.50 1009.81 1009.68 1009.73 1009.87 1010.27 1010.84 1011.38 1011.76 1012.22 1012.52 1012.72 1012.89 1013.23 1013.48 1013.91 1014.15 1014.37 1014.64 1014.86 1014.87 1015.14 1015.51 1015.76 1015.79 1015.83 1015.64 1015.35
999.13 997.65 996.42 996.35 996.26 995.97 995.66 994.71 995.46 996.88 1001.13 1003.11 1003.84 1005.09 1006.14 1007.49 1009.54 1010.82 1011.32 1011.63 1012.02 1012.17 1012.22 1012.30 1012.56 1013.16 1013.56 1013.92 1014.31 1014.49 1014.65 1014.83 1015.16 1015.35 1015.52 1015.78 1015.92 1015.86 1016.51 1016.65 1016.64 1016.65 1016.71 1016.14
1000.92 999.55 998.37 997.77 996.93 997.97 997.49 996.09 996.46 998.53 1000.83 1002.73 1004.09 1006.35 1007.69 1009.21 1011.07 1011.83 1012.41 1012.68 1012.86 1012.95 1013.24 1013.58 1013.77 1014.16 1014.57 1014.88 1015.09 1015.38 1015.72 1015.95 1016.18 1016.39 1016.54 1016.81 1016.90 1016.99 1017.28 1017.37 1017.32 1017.32 1017.35 1017.12
1002.11 1001.47 1001.25 1001.39 1001.21 999.95 998.44 998.53 999.03 999.77 1000.73 1003.56 1005.21 1006.78 1007.47 1009.69 1011.44 1012.63 1012.91 1013.35 1013.67 1013.96 1014.15 1014.41 1014.55 1014.91 1015.43 1015.83 1016.03 1016.34 1017.07 1017.10 1017.14 1017.43 1017.45 1017.58 1017.82 1017.97 1018.05 1017.98 1017.98 1017.96 1017.98 1018.29
1003.38 1002.91 1002.79 1002.77 1002.18 1000.51 1000.24 1000.37 1001.10 1002.06 1002.94 1004.46 1006.34 1007.84 1009.41 1010.80 1012.18 1012.81 1013.55 1013.89 1013.95 1014.06 1014.18 1014.57 1015.01 1015.53 1016.04 1016.53 1016.89 1017.25 1017.86 1018.29 1018.28 1018.28 1018.25 1018.43 1018.51 1018.59 1018.70 1018.92 1019.12 1019.64 1019.80 1019.68
1006.87 1005.33 1004.90 1004.73 1003.84 1003.09 1002.92 1003.03 1003.41 1003.81 1004.55 1005.83 1007.65 1009.65 1011.15 1012.09 1012.96 1013.04 1013.75 1013.68 1013.98 1014.46 1014.86 1015.24 1015.78 1016.29 1016.89 1017.31 1017.45 1017.80 1018.36 1018.81 1019.02 1019.17 1019.04 1019.12 1019.12 1018.97 1019.28 1020.13 1020.47 1020.62 1021.44 1021.36
1008.66 1007.37 1006.50 1006.72 1006.09 1005.21 1005.47 1005.68 1006.18 1006.30 1007.21 1008.76 1009.71 1011.56 1012.69 1013.11 1013.36 1013.79 1013.79 1014.20 1014.68 1015.16 1015.66 1016.18 1016.66 1017.04 1017.41 1017.72 1018.12 1018.32 1018.65 1019.49 1019.76 1019.90 1019.83 1019.88 1019.71 1019.15 1019.61 1020.18 1020.87 1021.58 1021.93 1021.84
Wind_Speed
26 19 25 35 35 29 26 26 26 25 21 28 24 23 25 21 15 19 20 22 23 23 22 20 17 17 19 15 14 15 13 13 12 9 9 9 10 7 6 5 8 9 9 11
22 28 32 28 29 30 29 29 25 20 24 15 19 21 24 25 22 20 21 19 21 21 22 21 18 16 16 15 15 16 13 13 11 9 9 8 7 8 7 7 7 10 9 7
28 25 28 28 28 28 31 28 27 17 13 15 16 21 24 24 23 21 19 20 19 19 22 22 22 17 16 16 16 15 14 15 9 8 7 5 5 7 6 4 4 6 8 9
21 25 25 29 29 30 28 29 25 24 15 18 19 16 21 21 25 24 24 19 20 21 19 19 21 18 18 17 16 14 16 16 11 12 8 10 9 9 9 8 6 6 7 6
22 26 25 20 26 28 29 22 25 26 21 17 24 17 20 29 28 28 26 25 22 20 22 24 21 20 18 17 16 14 18 15 12 10 10 9 10 7 5 5 8 6 4 5
21 21 14 21 23 22 24 23 24 26 17 17 19 18 17 18 24 24 25 25 24 22 21 21 23 21 19 17 17 15 16 14 12 9 7 11 8 3 6 4 6 5 3 3
27 24 18 21 24 23 24 21 10 15 18 14 25 22 17 22 19 22 21 24 23 21 21 21 22 21 19 19 18 16 16 14 13 13 9 8 9 7 7 6 3 6 4 3
3 9 24 19 25 26 28 24 15 18 24 25 26 27 21 15 10 7 13 22 23 22 20 21 22 19 19 19 19 16 15 14 12 12 12 10 13 8 6 8 7 7 5 5
6 9 5 22 22 26 28 25 26 17 22 19 22 22 24 14 8 5 3 9 22 22 21 20 19 17 22 17 15 14 14 13 14 12 10 11 10 10 10 10 8 7 7 7
8 11 9 15 25 29 23 25 24 16 18 19 23 21 14 21 17 12 15 10 12 6 10 14 18 21 18 15 13 13 13 13 13 14 13 11 12 12 10 9 9 9 8 7
7 8 4 14 20 23 18 20 23 20 16 16 17 21 15 21 19 15 18 13 12 13 17 18 19 19 16 15 13 13 14 16 15 15 14 14 12 12 11 9 8 8 6 5
4 5 8 18 18 20 16 21 29 14 23 15 12 8 15 22 20 22 15 14 13 14 18 18 18 17 16 16 17 16 17 17 15 15 14 14 12 11 11 9 8 7 6 4
5 5 5 3 2 17 29 28 28 22 20 14 13 8 11 23 22 18 16 13 13 14 16 16 15 15 16 15 17 17 17 16 15 14 14 12 11 11 9 8 6 6 5 5
4 5 12 6 15 15 9 19 27 25 8 14 3 15 14 16 20 16 15 14 15 15 17 17 16 17 16 17 17 16 16 15 14 14 13 12 11 9 7 6 4 4 2 4
1 7 11 20 10 18 15 20 23 20 14 5 19 17 17 18 20 16 16 16 18 17 17 17 17 17 18 17 16 15 15 14 13 13 12 11 9 8 7 7 6 5 6 8
4 5 10 16 17 21 21 21 25 23 21 5 14 22 19 19 18 17 16 19 19 19 19 18 18 19 18 16 16 14 14 13 12 12 11 9 8 8 7 6 6 7 9 9
5 6 6 12 16 13 18 22 22 12 17 10 10 16 23 21 18 15 17 18 19 19 20 20 19 17 15 15 14 14 13 12 12 11 10 9 9 10 10 9 10 10 10 9
6 6 2 10 15 9 7 16 18 13 18 26 14 21 19 20 19 17 15 18 19 20 20 18 16 15 15 14 14 13 12 12 12 12 11 11 11 11 11 10 10 9 8 8
10 4 3 3 1 12 13 12 14 10 12 16 21 22 25 25 24 17 14 17 19 20 18 17 15 15 14 14 13 13 13 13 12 12 12 11 11 10 10 10 10 10 9 9
7 10 3 6 5 6 10 14 16 19 9 17 20 23 23 22 16 8 14 19 19 19 17 16 16 15 14 13 13 13 13 12 12 12 11 10 10 11 10 10 10 9 9 9
7 4 4 6 8 7 8 22 15 5 7 14 17 19 16 13 12 15 15 18 16 15 15 15 16 14 14 13 12 13 12 13 11 10 11 11 10 10 10 9 8 9 11 10
6 8 7 8 6 7 15 7 15 14 23 20 17 20 24 24 18 17 16 17 17 16 16 15 14 14 13 12 12 13 13 10 10 10 11 10 10 9 8 8 8 9 9 9
4 7 4 6 3 11 3 17 14 16 25 22 23 20 27 24 20 19 18 17 16 15 14 13 13 15 14 14 12 12 11 10 10 9 10 10 9 9 8 9 10 9 10 9
9 16 5 2 11 9 20 21 20 20 22 25 25 26 26 27 19 19 17 15 14 12 14 13 14 14 14 13 12 12 10 9 9 9 8 7 8 8 9 9 8 9 9 8
6 9 5 3 5 15 16 20 20 20 23 27 26 25 23 23 18 17 16 13 15 14 13 12 12 12 12 11 12 11 11 9 9 8 7 8 7 6 9 10 9 8 10 9
8 5 3 3 7 10 14 20 21 24 26 26 29 23 17 16 20 16 15 15 14 14 13 12 12 12 12 11 10 9 10 11 8 7 6 5 3 5 7 6 7 12 8 9
Wind_Direction
208 222 217 217 221 231 241 228 231 226 229 224 210 238 219 241 195 219 211 216 223 222 210 199 199 189 169 180 182 175 185 164 154 174 173 175 198 214 211 196 205 209 207 218
211 219 229 230 225 231 240 244 247 233 217 226 205 232 243 217 221 212 215 214 208 213 208 192 188 186 181 187 186 164 181 160 168 173 187 188 193 194 199 199 197 210 219 210
225 214 228 233 234 226 224 229 233 238 192 211 230 237 227 233 215 207 215 209 217 203 207 194 171 181 182 179 185 180 155 157 156 155 176 144 156 183 203 174 167 214 226 228
230 257 229 211 228 222 230 218 240 239 228 212 202 237 222 221 221 218 209 209 201 209 206 204 175 176 182 180 182 184 135 149 160 161 158 169 182 181 196 178 202 198 224 239
222 225 241 214 210 222 229 229 215 236 232 231 200 219 249 198 215 209 209 210 210 197 199 204 190 181 189 180 168 175 128 153 143 151 178 182 211 159 171 193 127 241 169 238
280 286 305 263 243 204 219 221 216 226 213 225 235 198 223 193 212 213 198 206 204 203 199 201 192 181 180 176 160 152 135 137 140 155 187 205 167 147 135 181 173 167 140 230
231 210 231 244 230 217 210 199 192 208 214 222 215 228 234 210 184 206 194 193 201 197 198 191 196 187 187 178 144 134 135 138 153 170 161 161 137 156 135 182 121 107 120 70
223 224 219 201 229 205 196 201 202 188 194 210 223 215 205 243 147 166 181 183 195 193 192 187 190 184 187 112 118 135 137 149 162 141 161 150 153 135 115 73 96 81 93 60
292 237 176 235 204 230 185 207 211 216 199 218 207 214 217 167 137 143 241 181 184 186 190 187 170 178 107 118 126 132 131 127 124 124 114 106 113 100 93 108 118 101 112 121
309 291 215 193 195 219 208 196 215 236 212 203 198 197 183 182 161 172 183 96 51 132 169 124 97 92 103 112 112 120 129 127 132 129 124 115 109 106 106 99 95 99 102 91
300 273 301 243 208 203 187 198 213 225 230 209 203 190 173 180 164 162 107 88 79 85 92 98 103 104 111 127 135 132 130 129 120 106 103 100 97 93 89 88 83 82 75 84
240 299 229 233 198 198 209 207 208 215 218 258 209 95 345 170 128 104 102 94 93 94 105 106 105 113 125 133 133 122 119 111 104 100 97 90 86 81 77 74 71 61 59 53
330 251 174 249 281 215 200 186 216 210 235 230 208 123 64 92 101 98 99 104 105 105 107 114 124 124 117 112 116 113 107 106 103 103 95 89 84 79 71 68 50 43 40 14
313 267 272 242 172 194 154 217 201 205 223 235 106 142 120 111 99 105 116 111 106 108 112 117 117 115 109 108 108 107 104 102 98 95 91 87 81 75 74 72 65 52 1 44
216 270 258 250 263 183 189 187 218 168 222 280 133 146 137 124 114 125 119 119 114 112 107 103 104 108 107 105 100 95 91 88 89 88 86 82 82 71 61 47 27 12 10 17
209 257 250 246 221 171 198 201 203 193 209 211 212 133 124 110 113 124 122 117 113 115 111 111 108 110 106 107 100 100 95 95 95 85 82 84 83 73 61 38 24 16 17 14
282 317 355 132 129 141 195 196 216 112 239 299 160 112 123 118 122 121 124 118 116 115 110 103 100 97 97 93 91 89 86 81 77 73 67 62 56 49 38 29 23 15 15 11
286 300 312 131 126 146 203 215 231 150 71 97 108 121 113 105 98 99 99 109 105 104 107 105 102 98 93 93 90 87 82 79 74 66 57 49 47 43 37 31 26 14 10 358
214 285 39 129 312 138 160 185 164 104 95 93 116 108 108 102 93 79 94 102 104 102 101 96 94 90 87 84 82 83 76 69 65 60 55 46 48 41 34 25 20 17 4 10
207 226 258 176 165 139 159 152 134 133 79 113 127 125 123 117 98 98 102 103 101 97 98 98 92 88 80 74 75 77 73 69 63 56 53 47 41 44 37 26 21 11 4 11
304 264 196 180 81 92 236 164 148 182 122 157 142 138 138 107 99 114 107 99 95 92 90 91 85 82 79 75 75 73 69 62 59 57 54 48 31 60 38 25 21 14 8 5
317 332 13 344 93 81 354 281 176 118 139 150 144 106 104 105 109 105 105 106 103 100 94 88 88 79 70 72 73 69 60 55 55 52 54 48 46 33 32 28 20 30 12 17
354 27 40 12 26 290 43 113 88 123 130 115 112 120 114 111 122 124 114 112 107 105 101 98 91 84 73 65 61 67 57 43 58 55 54 49 52 41 41 37 30 21 26 20
350 21 44 322 340 53 88 93 99 113 117 119 122 124 121 122 117 112 112 112 112 110 98 91 86 80 73 65 66 70 65 62 56 51 54 44 58 51 47 41 42 33 22 19
345 314 38 59 359 50 71 92 105 104 107 107 101 107 112 116 105 111 113 110 103 95 89 85 83 82 80 73 66 59 64 55 62 54 48 52 28 52 78 58 42 52 49 36
332 323 346 36 6 87 92 103 104 101 105 109 110 102 88 101 115 118 112 105 100 97 94 91 89 86 78 71 64 63 75 71 57 56 45 58 36 58 55 69 88 72 53 52